Regional Weather Roundup
Issued by NWS Green Bay, WI

Home | Current Version | Previous Version | Graphics & Text | Print | Product List | Glossary Off
Versions: 1 2 3 4 5 6 7 8 9 10 11 12 13 14 15 16 17 18 19 20 21 22 23 24 25 26 27 28 29 30 31 32 33 34 35 36 37 38 39 40 41 42 43 44 45 46 47 48 49 50

668
ASUS43 KGRB 250100
RWRGRB

NORTH-CENTRAL AND NORTHEAST WISCONSIN REGIONAL WEATHER ROUNDUP
NATIONAL WEATHER SERVICE GREEN BAY WI
800 PM CDT SAT SEP 24 2016

WIZ005-009-010>012-018-019-250200-
NORTH CENTRAL WISCONSIN

CITY           SKY/WX    TMP DP  RH WIND       PRES   REMARKS
IRONWOOD       MOCLDY    64  55  72 SE6       30.13F
MANITOWISH WTR NOT AVBL
ARBOR VITAE    NOT AVBL
EAGLE RIVER    NOT AVBL
LAND O LAKES   NOT AVBL
RHINELANDER    CLEAR     56  53  90 E6        30.18R
PHILLIPS       NOT AVBL
ANTIGO         NOT AVBL
TOMAHAWK       NOT AVBL
MERRILL        NOT AVBL
$$

WIZ013-073-250200-
NORTHEAST WISCONSIN

CITY           SKY/WX    TMP DP  RH WIND       PRES   REMARKS
IRON MOUNTAIN  CLEAR     58  48  69 SE5       30.20R
MARINETTE      CLEAR     59  51  75 SE3       30.20R
$$

WIZ017-030-035>037-045-250200-
CENTRAL WISCONSIN

CITY           SKY/WX    TMP DP  RH WIND       PRES   REMARKS
MEDFORD        NOT AVBL
WAUSAU         CLOUDY    63  53  70 SE9       30.15R
MOSINEE        MOCLDY    61  57  88 E6        30.17R
MARSHFIELD     CLOUDY    64  56  75 SE9       30.14R
WISC RAPIDS    LGT RAIN  64  59  83 E8        30.16R
STEVENS POINT  NOT AVBL
WAUPACA        NOT AVBL
SHAWANO        NOT AVBL
CLINTONVILLE   NOT AVBL
WAUTOMA        CLOUDY    64  59  83 E3        30.17R
$$

WIZ038-039-048-051-250200-
FOX VALLEY

CITY           SKY/WX    TMP DP  RH WIND       PRES   REMARKS
NWS GREEN BAY  PTCLDY    60  55  83 E6        30.19R
APPLETON       PTCLDY    61  52  72 E6        30.17R
OSHKOSH        PTCLDY    62  56  80 SE7       30.16R
FOND DU LAC    CLOUDY    63  57  81 SE9       30.16R
$$

WIZ022-050-052-250200-
EAST CENTRAL WISCONSIN

CITY           SKY/WX    TMP DP  RH WIND       PRES   REMARKS
EPHRAIM        NOT AVBL
WASHINGTON ISL NOT AVBL
STURGEON BAY   CLEAR     58  53  84 CALM      30.20R
MANITOWOC      NOT AVBL
SHEBOYGAN      CLOUDY    60  56  86 NE5       30.17S
$$

LMZ563-521-522-541>543-250200-
LAKESHORE

STATION/POSITION TIME  TEMP    WIND        PRES    VSBY  WAVE
                       AIR SEA DIR/SP/G                  HT/PER
                 (UTC) (F)     (DEG/KT/KT) (MB)    (MI)  (FT/S)
SHEBOYGAN LKSHOR 0000   64     130/  7/  8 1021.2S
KEWAUNEE LKSHORE 0000   62     100/  6/  8 1021.2F
NORTHPORT PIER   0000   64     100/ 10/ 12 1022.0F
N MID LAKE BUOY  2350   63 67  110/ 12/ 14 1021.9F         1/ 3
S GREEN BAY BUOY 0000   63 66  100/  8/ 10 1021.1F
CHAMBERS ISLAND  0000   62      90/  5/  8 1021.7F
MENOMINEE LKSHOR 0000   63     100/  9/ 12 1021.0F
$$




USA.gov is the U.S. government's official web portal to all federal, state and local government web resources and services.